Regional Weather Roundup
Issued by NWS San Diego, CA

Home | Current Version | Previous Version | Text Only | Print | Product List | Glossary On
Versions: 1 2 3 4 5 6 7 8 9 10 11 12 13 14 15 16 17 18 19 20 21 22 23 24 25 26 27
000
ASUS46 KSGX 271911
RWRSGX

SAN DIEGO HOURLY WEATHER ROUNDUP
NATIONAL WEATHER SERVICE SAN DIEGO CA
1200 PM PDT WED JUL 27 2016

NOTE: "FAIR" INDICATES FEW OR NO CLOUDS BELOW 12,000 FEET WITH NO
SIGNIFICANT WEATHER AND/OR OBSTRUCTIONS TO VISIBILITY.

CAZ042-043-060-061-PZZ750-775-272000-

GREATER SAN DIEGO AREA

CITY           SKY/WX    TMP DP  RH WIND       PRES   REMARKS
LINDBERGH FLD  MOSUNNY   78  67  68 NW9       29.94S
POINT LOMA       N/A     77  68  73 W14         N/A
NATIONAL CITY    N/A     81  70  69 SW5       29.94S
CHULA VISTA      N/A     81  70  69 W10       29.86S
IMPERIAL BEACH MOSUNNY   81  67  62 W10       29.94S
BROWN FIELD    SUNNY     87  62  43 W8        29.93F
MIRAMAR MCAS   MOSUNNY   87  65  47 NW8       29.93F
MONTGOMERY FLD SUNNY     86  65  49 W9        29.93F

$$

NORTH SAN DIEGO COUNTY

CITY           SKY/WX    TMP DP  RH WIND       PRES   REMARKS
CAMP PENDLETON MOSUNNY   84  67  56 SW10      29.91F
OCEANSIDE AP   SUNNY     81  67  62 SW12      29.92S
OCEANSIDE HBR    N/A     76  71  83 SW5       29.95S
VISTA            N/A     83  70  64 W10       29.90R
CARLSBAD       SUNNY     77  69  76 W8        29.93S
DEL MAR          N/A     78  72  80 W2        29.95F
LA JOLLA SCRIP   N/A     73  70  89 W9        29.93S
FALLBROOK        N/A     89  66  45 S5        29.90S
ESCONDIDO        N/A     92  71  49 SW7       29.92S HX  99
SAN MARCOS       N/A     83  69  62 W12       29.95S
POWAY            N/A     92  64  38 SW3       29.91F

$$

EAST SAN DIEGO COUNTY

CITY           SKY/WX    TMP DP  RH WIND       PRES   REMARKS
RAMONA         SUNNY     93  53  25 W9        29.96F
SANTEE LAKES     N/A     90  70  51 S10       29.89S HX  95
LA MESA          N/A     86  68  54 CALM      29.85S
JAMUL            N/A     92  66  42 CALM      29.90F
DESCANSO N       N/A     91  51  25 W7        29.77S
MT. LAGUNA OBS   N/A     80  45  28 W1        29.82S
CAMPO            N/A     93  51  23 S18       29.97F

$$

ORANGE COUNTY AND THE LOS ANGELES BASIN

CITY           SKY/WX    TMP DP  RH WIND       PRES   REMARKS
JOHN WAYNE AP  MOSUNNY   85  60  42 S8        29.91F
LAGUNA BEACH     N/A     80  70  72 S3        29.88S
LAKE FOREST FR   N/A     92  50  23 W3        29.79F
HUNTINGTON BCH   N/A     80  71  73 SW2       29.94F
LOS ALAMITOS   MOSUNNY   85  66  52 S9        29.92S
FULLERTON      SUNNY     90  58  33 S8        29.90F
LONG BEACH     SUNNY     85  63  47 S9        29.92S
L.A. AP        MOSUNNY   78  65  63 W10       29.93F
L.A. DOWNTOWN  SUNNY     86  59  39 W5        29.91F

$$

THE INLAND EMPIRE

CITY           SKY/WX    TMP DP  RH WIND       PRES   REMARKS
CORONA         SUNNY     93  57  29 W10       29.91F
CHINO          MOSUNNY   97  43  15 VRB6      29.93F
ONTARIO        MOSUNNY   94  49  21 W8        29.93F
SAN BERNARDINO MOSUNNY   97  43  15 W8        29.94F
RIVERSIDE AP   MOSUNNY   95  42  16 VRB5      29.92F
MORENO VALLEY    N/A     97  48  18 CALM      28.09S
MARCH ARB      SUNNY     95  44  17 NW10      29.95F
HORSETHIEF CYN   N/A     95  40  15 NE6       29.91F
HEMET EAST       N/A     93  46  19 W3        29.78F
FRENCH VALLEY  FAIR      95  54  24 SW8       29.95F
TEMECULA         N/A     94  58  29 SW7       29.89S

$$

SAN BERNARDINO AND RIVERSIDE COUNTY MOUNTAINS

CITY           SKY/WX    TMP DP  RH WIND       PRES   REMARKS
BIG BEAR AP    MOSUNNY   81  41  24 NW8       30.34S
PINE COVE        N/A     83  49  30 NW2       29.86S

$$

SOUTHERN DESERT INCLUDING THE COACHELLA VALLEY

CITY           SKY/WX    TMP DP  RH WIND       PRES   REMARKS
PALM SPRINGS   SUNNY    107  54  17 SE6       29.81F HX 105
THOUSAND PALMS   N/A    106  56  18 S2        29.77F HX 105
PALM DESERT      N/A    110  59  19 CALM      27.62S HX 111
THERMAL        SUNNY    106  58  20 VRB7      29.75F HX 106
BLYTHE         SUNNY    110  57  17 S16       29.80F HX 110
IMPERIAL AP    SUNNY    108  63  23 VRB3      29.77F HX 111
EL CENTRO NAS  MOSUNNY  108  57  18 VRB7      29.79F HX 108
YUMA AZ        MOSUNNY  106  62  23 S13       29.81F HX 108
MEXICALI       MOSUNNY  104  63  25 SE9       29.81  HX 106

$$

UPPER DESERT

CITY           SKY/WX    TMP DP  RH WIND       PRES   REMARKS
VICTORVILLE AP MOSUNNY  100  41  13 CALM      30.00F HX  96
HESPERIA         N/A    101  52  19 N5        29.90F HX  99
PALMDALE       SUNNY    102  44  14 SW16      29.97F HX  98
LANCASTER      SUNNY    104  41  11 SW15G23   29.96F HX  99
EDWARDS AFB    MOSUNNY  102  38  11 W6        29.93F HX  96
DAGGETT        SUNNY    106  40  10 NW10      29.91F HX 100
29 PALMS N     MOSUNNY  105  43  12 S5        29.98F HX 100
NEEDLES        MOSUNNY  114  54  14 S7        29.81F HX 112

$$

REGIONAL REPORTS

CITY           SKY/WX    TMP DP  RH WIND       PRES   REMARKS
SANTA BARBARA  SUNNY     71  62  73 S5        29.93S
SANDBERG       SUNNY     95  37  13 S14       30.17S
LAS VEGAS NV   MOSUNNY  109  39   9 VRB3      29.87F HX 103
PHOENIX AZ     MOSUNNY  103  60  24 VRB6      29.85F HX 104
TIJUANA        MOSUNNY   84  54  34 W13       29.96F
ENSENADA NW      N/A     76  32  20 SW3       29.92S

$$

OFFSHORE ISLANDS

CITY           SKY/WX    TMP DP  RH WIND       PRES   REMARKS
CATALINA ARPT  MOSUNNY   85  51  31 W8        30.00S
SAN CLEMENTE I MOSUNNY   71  61  70 W9        29.96S
SAN NICOLAS IS FAIR      75  61  61 NE5       29.95R

$$

MARINE AND OFFSHORE BUOY REPORTS

STATION/POSITION SKY/WX   TEMP    WIND        PRES    SWELL
                          AIR SEA DIR/SP/G            HT/PER/DIR
                          (F)     (DEG/KT/KT) (MB)    (FT/S/D)
TANNER BANKS               61 65  290/ 10/ 12 1014.3S   5/270/11
S CLEMENTE BASIN           67 70  270/  8/ 10 1014.0R   3/210/ 9
SAN NICOLAS IS.               63                N/A     3/240/11
SO. S. ROSA ISLA           61 66  280/  8/ 10 1014.4R   5/310/ 9
W. S. BARBARA CH           60 63  290/ 10/ 10 1014.2R   5/300/10
M. S. BARBARA CH                  220/  4/  6 1014.1R   2/250/ 9
S. MONICA BASIN            69 72  240/  4/  6 1013.5S
S PEDRO CHANNEL               72                N/A     2/160/13
OCEANSIDE OFFSHR              77                N/A     2/200/13
TORREY PINES OTR              76                N/A     2/200/12
LA JOLLA 1                 74 70  290/  6/  7 1013.8R
SAN DIEGO BAY                 78              1013.9R
POINT LOMA SOUTH              72                N/A     2/200/13

$$





USA.gov is the U.S. government's official web portal to all federal, state and local government web resources and services.